Location: Belloy
(55.7522°N, 118.2333°W)
Time: 00:00:08
(UTC+00:00)

Envisat - Pass Details

Date: 30 November 2021
Orbit: 764 x 766 km, 98.2° (Epoch: 27 January)

Event Time Altitude Azimuth Distance (km) Brightness Sun altitude
Rises 11:19:45 0° 27° (NNE) 3,249 6.8 -37.5°
Reaches altitude 10° 11:23:24 10° 54° (NE) 2,316 6.1 -37.1°
Maximum altitude 11:25:49 13° 82° (E) 2,087 5.9 -36.7°
Drops below altitude 10° 11:28:14 10° 111° (ESE) 2,307 6.0 -36.4°
Sets 11:31:50 0° 138° (SE) 3,226 6.5 -35.9°
